Location: Unnamed
(25.2826°S, 57.6099°W)
Time: 08:37:28
(UTC-04:00)

BlueWalker 3 - Visible Passes

Search period start: 16 January 2026 00:00
Search period end: 26 January 2026 00:00
Orbit: 451 x 463 km, 53.2° (Epoch: 16 January)

Date Brightness Start Highest point End Pass type
(mag) Time Alt. Az. Time Alt. Az. Time Alt. Az.
21 Jan 3.5 04:39:34 10° N 04:42:45 29° NE 04:45:58 10° ESE visible
22 Jan 4.0 04:04:44 10° N 04:07:28 20° ENE 04:10:14 10° ESE visible
23 Jan 4.2 03:31:14 13° NE 03:32:11 14° ENE 03:34:13 10° E visible
24 Jan 2.3 04:31:27 17° WNW 04:34:00 45° SW 04:37:32 10° SSE visible
25 Jan 1.8 03:57:48 48° WNW 03:58:37 68° SW 04:02:15 10° SSE visible
